This is the latest recevied weather packets stored in our database for station/object DB0RES-5. If no packets are shown the sender has not sent any weather packets the latest 10 day(s).
| Time | Temp. | Humidity | Pressure | Rain* | Wind** | Luminosity | Snow |
|---|---|---|---|---|---|---|---|
| 1777619168 | 14.44° C | 48% | 1028.3 hPa | 0 mm | - | - | - |
| 1777618565 | 13.89° C | 50% | 1028.3 hPa | 0 mm | - | - | - |
| 1777617962 | 13.33° C | 52% | 1028.3 hPa | 0 mm | - | - | - |
| 1777617360 | 13.33° C | 54% | 1028.3 hPa | 0 mm | - | - | - |
| 1777616757 | 12.78° C | 54% | 1028.3 hPa | 0 mm | - | - | - |
| 1777616155 | 12.78° C | 57% | 1028.4 hPa | 0 mm | - | - | - |
| 1777615552 | 12.22° C | 57% | 1028.4 hPa | 0 mm | - | - | - |
| 1777614950 | 11.67° C | 59% | 1028.3 hPa | 0 mm | - | - | - |
| 1777614347 | 11.67° C | 60% | 1028.3 hPa | 0 mm | - | - | - |
| 1777613744 | 11.11° C | 59% | 1028.3 hPa | 0 mm | - | - | - |
| 1777613142 | 11.11° C | 60% | 1028.3 hPa | 0 mm | - | - | - |
| 1777612539 | 10.56° C | 60% | 1028.1 hPa | 0 mm | - | - | - |
| 1777611937 | 10.56° C | 61% | 1028.2 hPa | 0 mm | - | - | - |
| 1777611334 | 10.56° C | 61% | 1028.3 hPa | 0 mm | - | - | - |
| 1777610731 | 10° C | 61% | 1028.3 hPa | 0 mm | - | - | - |
| 1777610129 | 10° C | 62% | 1028.2 hPa | 0 mm | - | - | - |
| 1777609526 | 9.44° C | 62% | 1028.2 hPa | 0 mm | - | - | - |
| 1777608924 | 9.44° C | 63% | 1028 hPa | 0 mm | - | - | - |
| 1777608321 | 9.44° C | 62% | 1027.9 hPa | 0 mm | - | - | - |
| 1777607719 | 9.44° C | 62% | 1027.9 hPa | 0 mm | - | - | - |
| 1777607116 | 10° C | 61% | 1028 hPa | 0 mm | - | - | - |
| 1777606574 | 10° C | 61% | 1028.1 hPa | 0 mm | - | - | - |
| 1777605971 | 10° C | 60% | 1028.1 hPa | 0 mm | - | - | - |
| 1777605369 | 10° C | 60% | 1028.1 hPa | 0 mm | - | - | - |
| 1777604766 | 10° C | 60% | 1028 hPa | 0 mm | - | - | - |
* Rain latest hour (hover to see other rain measurements)
** Current wind speed in m/s (hover to see current wind gust speed)